GFSFLT1_500_spd_012.txt.gz
Wind_Speed
13 12 14 13 12 14 15 19 21 22 23 23 23 21 20 21 21 24 25 27 28 29 28 28 28 28 28 27 28 28 28 28 24
15 16 16 13 13 12 15 18 21 22 21 20 20 20 17 18 19 21 22 23 25 26 26 27 26 26 26 27 28 27 27 28 28
17 18 15 14 13 13 14 17 19 20 19 19 19 20 18 18 18 20 22 24 24 24 25 26 28 28 28 28 27 28 28 29 29
17 16 16 15 14 14 15 15 15 17 18 17 17 18 17 18 19 19 21 23 24 25 26 26 26 27 28 28 28 28 29 30 32
17 17 17 18 17 17 18 15 16 18 19 19 19 19 20 20 22 21 22 23 25 26 27 29 31 31 30 30 29 29 29 31 33
19 19 20 21 21 20 22 21 20 21 22 22 22 21 22 22 24 26 27 28 30 31 31 32 33 33 33 33 32 32 32 32 32
25 23 23 25 26 25 25 26 26 26 26 26 27 26 26 27 27 29 31 32 33 34 35 36 36 36 35 36 36 35 36 36 35
29 27 28 29 29 31 30 31 31 31 30 31 31 31 30 29 29 30 32 34 35 37 38 39 39 38 38 39 39 37 38 37 38
32 34 36 36 33 34 36 36 36 35 34 34 35 34 33 33 33 34 36 38 38 39 40 41 42 41 42 41 41 41 40 40 41
38 40 41 40 37 38 39 41 41 40 38 38 38 38 38 37 38 39 40 41 41 40 40 41 42 42 44 44 44 43 42 42 42
43 44 43 41 41 42 41 42 43 43 43 43 43 43 44 44 44 44 44 44 43 43 42 42 43 44 45 46 46 44 43 43 45
40 41 40 41 42 42 41 43 45 47 48 48 49 48 49 47 47 46 47 47 45 45 44 46 46 47 46 46 45 44 43 45 46
38 39 41 41 41 42 44 45 46 48 51 53 53 53 53 52 51 48 50 50 49 48 47 48 49 49 48 47 47 47 47 47 46
35 35 37 39 40 42 43 45 48 48 50 54 56 56 56 54 52 53 54 53 53 53 51 50 50 51 50 49 48 50 49 48 48
35 35 38 41 43 44 45 47 49 50 52 55 56 58 58 56 55 55 57 57 57 57 54 53 53 53 51 50 50 50 51 48 45
34 35 36 39 41 43 43 45 47 47 51 55 56 58 57 57 57 59 59 59 59 56 55 57 55 53 54 55 52 52 50 47 47
41 43 44 46 48 50 51 53 54 54 55 58 62 63 61 58 62 63 62 61 60 56 55 57 58 54 54 52 52 50 44 47 46
49 51 53 54 55 56 56 57 59 61 60 61 65 67 67 66 60 62 62 62 61 60 60 57 57 53 50 53 52 46 48 45 45
51 52 53 54 57 58 60 61 62 63 64 66 66 67 70 73 73 64 63 65 64 62 58 58 57 53 52 54 54 54 50 45 44
53 55 57 59 62 63 65 67 70 71 72 73 73 74 73 71 74 75 66 64 61 61 60 59 58 53 53 53 55 56 52 41 43

GFSFLT1_500_spd_018.txt.gz
Wind_Speed
14 18 19 19 19 19 17 16 15 16 17 17 18 18 17 16 15 14 13 13 13 13 13 14 15 16 17 18 20 21 22 22 22
16 19 20 21 21 21 18 18 18 17 17 16 16 17 18 16 14 13 12 13 13 14 15 17 18 19 21 22 24 25 25 25 25
17 19 20 20 20 19 19 20 20 20 20 19 16 16 17 17 16 16 16 16 17 18 20 21 22 24 25 26 27 27 28 28 28
18 20 20 20 19 19 20 22 22 24 25 25 23 20 19 20 20 21 21 22 21 22 23 23 24 25 26 27 29 30 31 31 30
20 22 22 23 24 23 23 25 25 26 28 31 30 29 27 27 26 26 26 27 27 26 26 27 28 30 30 32 31 31 31 31 31
24 26 28 30 31 30 28 29 29 29 31 34 36 36 35 35 34 33 32 32 32 33 33 33 34 36 37 38 37 35 35 35 35
28 30 31 32 33 33 33 33 35 37 38 38 40 40 41 41 40 40 39 38 38 38 39 39 40 41 42 43 42 40 39 38 38
31 32 33 34 36 37 38 41 42 43 43 44 44 44 44 45 45 46 45 44 45 44 43 44 45 46 46 46 46 44 43 42 41
34 36 38 40 42 43 44 46 46 48 48 47 45 44 44 44 45 48 50 50 51 51 50 49 50 50 50 49 49 47 46 46 45
39 42 45 45 45 44 45 45 45 45 44 44 44 45 45 45 46 47 49 51 53 54 54 54 54 53 53 53 52 50 49 48 48
45 44 41 40 39 39 39 40 41 42 43 44 45 45 47 48 49 49 49 50 51 53 53 54 55 55 54 53 52 51 51 50 49
42 41 40 40 40 39 38 39 40 41 42 43 45 46 46 47 47 48 49 50 52 52 53 54 54 54 54 53 53 53 53 53 53
37 36 36 36 37 36 36 36 36 37 39 41 42 43 46 47 48 49 50 51 52 53 54 55 55 54 55 56 56 55 55 54 54
34 33 33 33 34 35 37 38 41 42 44 46 47 49 50 52 53 53 55 56 56 56 57 58 59 59 59 59 59 58 57 57 56
32 32 34 36 37 40 42 44 46 47 48 50 50 51 51 52 53 55 58 59 60 61 61 61 61 62 62 62 60 60 59 57 57
35 37 39 41 42 44 46 48 49 51 54 56 57 58 58 58 59 60 61 62 62 63 63 64 64 64 63 64 63 62 58 56 57
40 41 43 45 46 48 51 54 56 57 60 62 64 64 61 60 60 59 59 60 60 60 60 60 61 62 63 63 63 63 61 59 57
43 45 47 50 52 54 56 57 59 60 60 62 66 68 67 68 66 65 64 64 64 64 65 66 65 64 62 61 59 59 57 57 57
48 51 52 53 53 54 56 59 61 64 65 65 66 68 70 73 73 72 73 72 69 68 66 66 64 62 64 65 61 59 61 62 59
49 49 51 53 56 60 62 62 64 66 68 71 73 75 78 80 83 82 81 81 81 77 73 72 69 68 65 61 61 64 64 66 63

GFSFLT1_500_spd_021.txt.gz
Wind_Speed
16 17 16 17 20 21 20 20 20 19 18 18 19 19 18 17 15 15 13 13 12 11 10 11 13 15 16 18 19 20 21 24 27
19 19 19 18 20 22 22 21 20 20 21 20 20 22 21 17 15 15 15 15 16 16 16 16 17 18 19 20 20 22 24 25 26
22 21 20 20 20 21 20 19 21 22 22 23 25 26 25 24 22 18 18 20 20 21 21 22 22 22 22 22 24 25 26 27 29
22 21 20 21 20 22 22 23 22 23 24 25 26 28 30 32 31 29 26 26 26 26 26 27 26 26 27 28 30 31 32 32 32
22 20 22 22 24 26 27 27 28 28 28 28 29 31 33 35 37 37 36 35 35 33 33 33 33 33 34 34 35 36 37 35 35
24 23 25 26 28 30 31 32 32 31 32 33 36 37 37 38 41 42 42 41 40 40 39 39 38 39 39 40 41 41 41 40 39
26 27 28 30 32 33 34 35 36 37 38 41 43 42 42 42 43 43 43 44 44 44 45 45 44 45 46 46 46 46 45 45 43
28 30 31 33 35 37 39 41 43 44 44 46 48 47 46 46 44 43 44 44 43 43 45 47 48 48 49 49 49 49 49 48 47
32 32 34 36 39 43 45 43 42 42 43 43 44 44 43 43 43 43 44 44 44 45 45 46 47 49 50 50 51 50 50 49 49
33 35 39 42 45 43 41 39 39 40 40 41 42 42 43 43 43 44 45 45 46 47 48 48 49 49 50 50 51 51 50 50 50
37 39 41 43 42 40 40 40 40 40 40 41 41 42 41 41 42 42 42 44 45 46 47 48 50 51 52 51 51 51 51 50 50
36 37 39 38 37 35 36 37 36 36 37 38 39 40 41 41 42 44 45 47 49 50 51 52 53 53 54 53 53 52 51 52 53
36 36 35 35 35 34 35 36 36 36 38 40 43 44 47 48 49 50 52 53 53 53 55 57 56 56 56 56 56 57 57 57 57
33 33 34 34 35 36 38 39 42 44 45 47 47 49 50 51 53 54 55 56 57 57 57 58 59 59 60 60 60 60 59 60 59
34 34 35 37 39 41 43 44 47 48 50 51 52 52 53 53 54 55 57 57 57 58 59 58 58 59 61 61 62 61 61 60 61
37 38 40 42 44 45 47 48 50 52 55 56 56 55 56 57 58 58 57 57 58 60 61 62 62 63 63 64 64 64 63 61 60
40 42 44 45 47 49 51 52 52 52 55 59 61 62 60 59 60 60 61 61 62 62 63 67 67 67 68 68 67 67 67 65 64
43 45 46 47 48 48 49 52 56 58 60 64 68 70 70 70 68 68 69 68 68 70 70 70 70 70 72 72 72 72 71 70 68
46 46 47 47 50 53 56 59 62 65 68 69 70 73 77 79 78 77 77 78 78 76 76 76 75 75 75 75 74 73 74 75 73
45 46 49 53 57 61 64 67 70 73 76 77 79 79 80 83 85 84 84 84 86 85 86 88 88 84 79 77 76 76 76 74 74

GFSFLT1_500_spd_027.txt.gz
Wind_Speed
19 19 19 19 20 21 22 22 22 21 20 21 20 21 22 22 24 24 24 23 23 21 22 20 19 18 19 21 22 22 22 22 22
22 22 22 23 23 23 24 22 21 20 20 21 20 23 24 23 24 26 26 26 27 27 27 27 26 26 26 27 27 27 27 27 28
23 24 25 25 25 25 23 22 21 21 22 23 24 26 28 29 29 30 30 30 30 31 31 32 32 34 33 33 33 33 33 33 33
19 19 20 21 22 23 22 22 24 26 27 28 29 30 32 34 33 33 33 34 35 36 37 37 38 38 38 38 38 38 37 38 38
22 22 22 22 22 23 24 26 27 29 30 31 32 33 34 35 36 38 39 39 41 40 42 43 43 42 42 42 42 43 43 43 43
26 25 25 25 25 26 28 28 30 32 34 35 36 38 40 42 43 42 44 45 47 48 47 47 47 45 44 44 44 45 46 47 48
27 27 27 27 28 29 31 33 35 37 39 40 42 44 46 46 44 44 47 48 49 49 48 46 46 46 46 47 47 47 47 47 47
26 27 29 31 33 34 35 37 38 40 43 46 47 45 44 43 42 42 41 43 44 46 47 47 47 48 48 48 49 49 50 50 50
25 26 28 29 31 34 37 39 41 43 45 44 42 42 41 40 40 40 39 41 43 43 44 45 45 45 45 46 47 48 48 49 49
25 27 30 32 35 37 39 41 41 42 41 39 39 38 37 36 37 37 37 39 41 43 44 45 47 49 50 51 51 52 52 53 54
28 31 33 35 37 38 39 40 39 38 38 37 37 37 37 38 39 40 42 44 45 47 50 51 51 52 53 54 55 56 56 56 56
31 33 35 37 38 38 38 38 38 38 38 38 39 41 41 43 44 45 46 47 48 48 50 53 55 55 56 56 57 58 58 59 59
35 37 39 39 39 38 38 39 39 39 40 40 41 43 43 44 45 46 47 48 49 50 51 54 56 59 60 60 60 61 61 61 61
39 40 40 39 38 38 38 39 40 41 41 42 41 41 41 43 45 49 51 53 55 57 59 61 61 63 65 66 67 66 66 66 66
42 41 39 38 38 39 40 40 41 42 42 41 41 42 43 46 49 52 55 58 60 62 64 66 68 68 69 70 72 73 73 72 71
40 38 37 38 38 38 40 41 41 42 43 45 45 46 49 52 55 58 60 62 64 65 68 70 72 73 74 76 75 75 77 78 78
37 38 39 40 41 42 43 43 43 45 48 51 52 53 54 58 62 66 68 69 69 70 71 73 75 77 79 80 79 81 82 82 82
40 41 42 43 44 45 45 47 50 51 52 56 61 63 64 67 69 71 73 74 74 75 76 78 80 82 83 85 87 87 87 87 88
42 43 45 46 46 47 49 51 53 56 59 63 67 71 75 79 80 81 80 79 79 79 80 82 83 85 86 87 89 90 93 93 93
45 46 46 46 47 49 51 57 59 64 68 72 75 76 77 79 83 87 87 86 86 85 86 87 89 91 93 95 95 95 96 97 98

GFSFLT1_500_spd_030.txt.gz
Wind_Speed
18 19 19 20 20 20 20 21 21 22 23 23 22 21 20 19 20 20 22 23 23 23 22 23 23 22 22 22 22 22 22 23 24
19 20 22 23 23 24 23 22 22 22 21 21 22 21 22 21 22 24 26 28 28 27 26 26 27 28 29 29 29 29 29 29 29
15 17 21 23 25 24 23 22 21 21 22 22 24 26 26 27 27 27 29 31 32 31 30 29 31 34 34 34 35 35 36 37 36
18 18 18 18 19 20 21 21 22 23 25 25 27 28 30 31 31 31 32 34 35 36 36 36 36 38 40 41 41 41 40 41 41
22 22 21 21 22 23 24 24 25 27 27 29 31 33 34 35 37 38 38 40 40 41 43 42 44 44 45 46 46 46 44 44 44
24 24 25 24 25 25 26 27 28 30 31 33 35 36 38 39 40 43 45 45 43 43 44 46 46 48 48 47 46 45 45 46 46
24 25 25 27 28 28 29 30 32 33 35 36 38 40 42 43 43 42 42 41 41 40 40 40 42 43 44 44 44 44 44 45 46
25 24 25 26 27 29 30 31 33 35 37 38 41 42 41 39 37 36 37 38 38 37 37 38 38 39 39 39 39 39 40 41 42
22 22 23 24 26 29 31 33 36 37 39 40 42 40 38 37 35 33 33 33 35 36 36 36 38 40 41 42 43 44 45 46 47
21 22 24 26 29 31 32 34 37 39 40 40 40 36 35 34 34 34 35 36 36 38 41 42 42 42 44 46 47 47 48 49 50
25 26 27 29 31 34 35 36 36 37 38 37 36 35 35 34 35 36 36 36 38 39 40 42 44 46 46 47 48 50 51 51 52
30 30 32 33 35 37 37 37 36 34 34 34 33 34 35 35 37 37 37 37 38 39 41 44 46 49 52 54 54 55 56 57 58
32 34 35 37 39 39 38 36 34 34 34 34 34 35 36 37 36 38 38 39 41 43 45 48 51 54 56 59 61 62 62 62 63
34 37 39 41 40 37 35 35 35 36 36 37 37 36 37 37 39 40 42 44 47 49 50 53 56 58 60 63 65 66 67 68 68
38 41 43 42 38 36 36 36 38 39 39 39 38 39 41 43 45 46 48 52 54 56 59 62 64 66 67 67 69 71 72 73 73
41 43 42 41 39 39 39 40 41 42 44 43 44 46 47 48 50 53 56 58 61 64 66 69 71 71 72 72 73 74 76 77 79
43 42 42 40 41 42 43 44 43 44 48 50 51 50 50 53 57 61 66 69 71 72 74 75 75 76 77 78 79 81 81 80 81
43 43 43 43 44 46 47 47 48 47 50 54 60 62 63 65 64 66 69 72 73 74 76 77 78 79 80 82 83 84 85 86 86
44 43 43 45 46 46 47 49 50 54 57 60 63 68 73 77 75 72 72 73 75 76 79 81 83 84 85 85 85 86 87 88 89
44 44 44 45 45 47 50 53 57 60 63 66 69 71 73 76 79 77 79 80 81 82 84 85 86 87 88 89 91 93 95 96 97

GFSFLT1_500_spd_033.txt.gz
Wind_Speed
16 18 18 18 19 19 19 20 20 20 21 22 22 23 23 20 20 22 23 24 23 24 24 24 23 22 22 23 23 24 24 24 24
14 17 19 21 22 23 23 23 23 23 22 22 22 22 22 22 22 23 25 27 28 27 29 30 29 28 27 27 28 29 29 30 32
16 16 16 17 19 21 24 24 25 24 23 23 24 25 26 26 27 27 29 31 32 32 33 34 34 33 33 33 34 35 36 36 36
19 20 20 20 20 20 20 21 23 24 25 25 26 28 28 28 29 31 32 33 34 35 35 37 38 40 40 40 40 39 40 42 42
20 21 22 23 24 24 24 25 25 26 27 28 29 30 31 31 34 36 37 38 40 41 41 42 43 43 45 45 46 45 44 45 44
22 22 23 24 25 26 26 27 27 29 30 31 33 34 35 36 37 40 42 43 43 43 41 40 40 39 40 42 44 44 42 42 42
23 23 24 24 24 25 25 26 28 30 32 33 34 35 37 37 40 41 40 40 39 38 36 36 37 37 36 37 38 38 38 37 37
23 23 23 22 22 22 23 24 27 29 32 34 35 37 38 38 38 39 38 36 35 34 32 31 32 32 33 34 35 36 37 37 37
23 22 22 22 23 24 25 27 28 31 33 35 37 38 38 37 36 35 35 34 33 33 33 33 33 34 35 36 38 39 40 40 41
28 25 24 25 26 26 28 30 31 34 36 37 37 37 37 36 36 35 35 35 35 35 35 37 38 38 38 39 40 41 42 43 43
35 31 29 29 30 31 33 35 37 38 37 37 36 36 36 37 36 36 36 36 36 38 39 39 39 40 41 42 44 45 46 48 49
38 36 34 32 33 35 37 39 42 41 38 35 35 34 35 36 37 38 39 39 39 40 41 42 43 45 45 45 47 49 51 52 53
35 36 34 33 35 38 42 44 42 39 36 35 35 36 37 39 40 41 41 42 44 45 46 48 48 50 51 52 53 54 56 58 60
32 31 33 35 38 41 42 41 40 39 38 38 38 40 40 41 41 42 44 47 49 50 52 53 55 56 58 61 64 65 65 65 66
32 32 34 37 40 41 42 42 41 40 40 40 41 41 43 44 45 47 48 51 52 55 57 60 63 66 68 70 72 73 74 73 74
35 37 40 42 43 44 44 43 42 44 44 43 43 44 46 47 49 52 55 57 60 63 65 68 70 72 74 75 76 77 78 78 78
40 41 43 44 45 45 45 45 45 45 47 47 47 46 47 52 55 58 61 64 67 70 72 73 74 76 77 78 80 81 83 83 83
43 43 44 45 45 45 45 46 46 46 49 53 56 57 59 59 59 61 65 68 70 72 74 75 77 79 81 83 84 85 86 87 87
43 44 45 44 45 46 47 48 49 51 54 57 62 66 69 71 70 69 70 72 73 74 76 78 80 83 85 87 88 89 90 91 91
44 44 44 45 46 47 48 50 54 57 60 63 65 68 71 75 80 81 79 77 77 79 80 83 85 87 89 91 93 94 95 96 98

GFSFLT1_500_spd_039.txt.gz
Wind_Speed
16 16 17 19 22 23 24 24 24 25 25 26 27 28 29 31 30 31 30 29 28 28 28 29 29 30 31 31 32 31 30 28 26
18 19 18 18 19 22 24 26 27 28 29 30 31 32 32 33 33 31 30 29 29 29 30 31 32 33 35 36 35 36 36 35 33
18 20 21 21 22 23 23 24 24 25 27 29 31 32 32 33 33 33 32 32 32 33 34 35 37 36 38 38 39 39 40 39 38
20 21 20 22 24 26 27 28 28 28 29 29 30 30 32 32 33 34 34 35 35 36 37 39 40 40 41 42 43 44 44 45 44
19 20 22 24 25 26 28 29 30 32 33 33 34 34 35 35 36 36 37 38 39 39 40 41 42 42 43 45 47 47 48 50 50
16 16 18 21 22 25 27 28 29 31 32 33 34 36 36 38 38 39 39 40 40 41 42 43 44 43 43 44 44 44 44 45 46
18 18 19 20 20 21 23 24 25 26 27 28 29 31 33 35 36 38 40 41 42 43 44 45 44 43 42 41 40 39 40 41 41
21 23 25 27 27 27 26 27 27 27 28 30 31 33 34 36 38 40 42 44 45 45 45 44 44 42 41 40 38 39 40 39 39
25 28 30 32 34 34 31 29 30 31 32 33 35 37 39 40 42 44 45 45 45 46 46 45 44 44 43 42 42 42 43 44 43
27 30 33 35 36 37 37 35 34 33 33 35 37 40 41 43 42 44 44 44 44 44 43 43 44 46 47 47 46 46 46 47 47
28 29 32 36 36 34 35 34 33 34 35 38 40 42 43 43 43 44 44 44 44 43 43 44 44 46 47 48 49 49 49 49 50
30 29 32 33 33 30 31 31 30 33 36 39 42 43 43 44 45 46 46 45 45 46 46 47 48 48 49 50 50 51 53 54 55
29 33 34 32 30 28 28 30 31 34 38 42 43 44 45 47 48 49 48 47 47 47 48 48 49 51 52 53 54 56 57 58 59
32 34 32 31 32 32 33 36 39 41 43 44 46 49 50 50 50 49 48 48 49 49 50 52 53 55 56 58 59 61 62 64 65
34 33 31 33 35 36 37 41 42 43 44 47 49 51 51 48 48 48 49 50 51 53 54 57 59 61 62 64 66 67 69 70 71
31 30 33 35 37 39 41 43 45 46 46 48 48 48 47 47 48 50 51 54 56 59 60 62 63 65 68 69 71 72 73 74 74
32 33 37 39 42 43 45 47 49 51 50 48 45 43 46 49 51 53 56 59 61 63 65 67 69 71 72 73 74 75 76 77 79
35 38 40 43 45 46 48 48 47 47 47 47 48 49 49 50 52 57 59 61 63 66 67 68 70 72 73 74 76 77 78 80 81
39 41 43 45 47 48 48 47 46 47 48 52 54 56 59 60 58 57 60 63 64 65 65 66 69 72 76 79 81 83 85 87 90
41 43 44 47 49 48 47 48 49 50 52 54 57 61 63 65 67 65 66 64 62 64 67 71 74 78 81 84 88 91 93 96 98

GFSFLT1_500_spd_042.txt.gz
Wind_Speed
14 14 14 15 15 18 19 22 24 24 25 25 27 28 28 29 30 31 32 32 31 32 30 29 28 28 28 30 31 31 31 31 29
15 15 17 18 18 19 19 20 22 23 26 28 30 31 32 33 34 35 35 33 31 31 31 32 32 31 31 32 33 34 34 34 34
15 15 17 18 21 24 24 26 26 26 26 27 27 28 29 30 31 32 32 32 32 32 32 33 34 35 35 36 37 38 39 39 40
15 15 16 19 21 23 24 26 27 28 29 31 32 32 33 33 33 34 34 35 34 35 36 36 37 38 39 40 41 42 43 43 44
14 14 16 18 20 23 24 26 27 28 30 31 32 33 34 34 35 35 36 37 37 38 38 40 41 41 41 43 44 44 45 46 46
13 13 14 15 16 17 18 20 23 25 28 30 30 30 30 30 30 31 32 34 35 37 39 40 41 43 45 45 46 45 44 46 46
16 17 19 20 22 24 25 25 25 25 25 27 28 28 29 30 31 33 35 36 38 40 41 43 43 44 45 46 46 44 44 44 42
19 21 23 25 27 29 31 33 34 33 32 31 31 32 32 33 35 36 37 38 40 40 41 43 43 44 44 44 43 42 42 42 42
21 24 24 27 29 31 33 37 37 37 36 36 35 34 33 34 36 38 39 39 39 40 42 42 44 44 44 44 43 42 41 41 42
24 24 26 29 30 32 31 32 33 32 34 35 36 36 37 38 39 41 42 41 42 42 43 43 43 43 44 44 43 43 44 43 44
26 26 28 29 29 31 34 32 31 29 30 31 33 35 38 39 41 43 43 43 45 46 45 45 44 44 45 46 46 46 46 46 46
27 27 29 29 31 34 33 31 31 30 31 32 35 37 39 41 43 44 45 47 47 47 47 46 46 46 47 47 48 49 49 49 50
28 28 30 30 33 34 34 33 34 34 36 38 41 42 44 45 46 48 49 49 48 46 45 46 47 48 49 50 51 52 53 54 55
28 31 31 32 34 33 33 34 36 37 40 42 44 45 47 49 51 52 52 50 47 47 48 48 49 51 52 54 55 57 57 59 60
31 32 33 33 32 32 34 36 38 40 42 45 46 47 48 49 48 47 46 47 48 50 51 53 55 57 57 57 58 60 61 63 64
32 33 33 33 33 35 38 41 42 43 44 46 48 50 48 46 45 47 48 50 52 55 57 58 58 59 61 63 65 66 67 67 68
32 34 34 36 37 40 42 44 45 46 47 49 47 43 45 46 47 49 50 53 56 58 59 61 63 65 67 67 68 69 70 71 72
34 35 37 39 41 42 44 45 47 49 50 48 48 47 47 47 46 50 55 56 58 60 62 63 63 65 66 67 69 71 73 75 76
36 39 40 42 43 44 45 48 49 49 49 50 51 52 54 55 52 52 55 57 60 61 60 60 63 67 70 73 75 78 81 84 86
39 41 42 43 43 46 48 49 50 50 51 51 53 56 59 62 60 57 58 59 57 57 59 63 68 73 77 80 83 86 89 91 94